MKU69 PHNL-PHLI

Flight info

Callsign MKU69
Flight time 0h 27m
Altitude 16000
Route KEOLA3 LIH
Aircraft DH8D/M-SDE2E3FGRY/H

Departure

Time 2026-04-20 23:40
Airport Daniel K. Inouye International Airport (PHNL)

Arrival

Time 2026-04-21 00:07
Airport Lihue Airport (PHLI)
Time Latitude Longitude Altitude Speed Heading
2026-04-20 23:08 21.33344 -157.92458 30 ft 0 kts 98°
2026-04-20 23:18 21.33344 -157.92459 30 ft 1 kts 99°
2026-04-20 23:18 21.33346 -157.92474 30 ft 2 kts 99°
2026-04-20 23:18 21.33349 -157.92491 30 ft 2 kts 99°
2026-04-20 23:19 21.33351 -157.92506 30 ft 2 kts 99°
2026-04-20 23:19 21.33353 -157.92520 30 ft 2 kts 98°
2026-04-20 23:19 21.33356 -157.92537 30 ft 2 kts 114°
2026-04-20 23:19 21.33365 -157.92549 30 ft 2 kts 142°
2026-04-20 23:20 21.33376 -157.92555 30 ft 2 kts 165°
2026-04-20 23:20 21.33389 -157.92557 30 ft 1 kts 188°
2026-04-20 23:20 21.33391 -157.92557 30 ft 0 kts 188°
2026-04-20 23:20 21.33390 -157.92557 30 ft 0 kts 188°
2026-04-20 23:33 21.33384 -157.92557 30 ft 1 kts 188°
2026-04-20 23:33 21.33371 -157.92560 30 ft 2 kts 187°
2026-04-20 23:34 21.33353 -157.92561 30 ft 2 kts 187°
2026-04-20 23:34 21.33331 -157.92564 30 ft 3 kts 187°
2026-04-20 23:34 21.33308 -157.92569 30 ft 3 kts 187°
2026-04-20 23:34 21.33282 -157.92572 30 ft 3 kts 187°
2026-04-20 23:35 21.33255 -157.92575 30 ft 3 kts 186°
2026-04-20 23:35 21.33203 -157.92581 30 ft 4 kts 187°
2026-04-20 23:35 21.33167 -157.92592 30 ft 10 kts 213°
2026-04-20 23:36 21.33114 -157.92647 30 ft 11 kts 224°
2026-04-20 23:36 21.33064 -157.92697 30 ft 10 kts 223°
2026-04-20 23:36 21.33014 -157.92754 30 ft 9 kts 228°
2026-04-20 23:36 21.32989 -157.92784 30 ft 0 kts 227°
2026-04-20 23:37 21.32984 -157.92789 30 ft 3 kts 227°
2026-04-20 23:37 21.32949 -157.92830 30 ft 11 kts 226°
2026-04-20 23:37 21.32894 -157.92880 30 ft 10 kts 209°
2026-04-20 23:37 21.32832 -157.92894 30 ft 7 kts 178°
2026-04-20 23:38 21.32770 -157.92892 29 ft 10 kts 177°
2026-04-20 23:38 21.32706 -157.92892 29 ft 8 kts 180°
2026-04-20 23:38 21.32652 -157.92892 29 ft 6 kts 182°
2026-04-20 23:38 21.32609 -157.92896 29 ft 7 kts 182°
2026-04-20 23:39 21.32556 -157.92897 29 ft 7 kts 181°
2026-04-20 23:39 21.32523 -157.92873 29 ft 7 kts 98°
2026-04-20 23:39 21.32525 -157.92764 29 ft 43 kts 92°
2026-04-20 23:39 21.32523 -157.92011 61 ft 140 kts 95°
2026-04-20 23:40 21.32446 -157.90901 663 ft 162 kts 103°
2026-04-20 23:40 21.31872 -157.89894 1363 ft 180 kts 140°
2026-04-20 23:40 21.30641 -157.89406 2005 ft 201 kts 167°
2026-04-20 23:40 21.29348 -157.89094 2764 ft 212 kts 165°
2026-04-20 23:41 21.27882 -157.88715 3656 ft 220 kts 166°
2026-04-20 23:41 21.26368 -157.88319 4599 ft 226 kts 166°
2026-04-20 23:41 21.24934 -157.87929 5505 ft 227 kts 166°
2026-04-20 23:41 21.23387 -157.87668 6438 ft 229 kts 185°
2026-04-20 23:42 21.21954 -157.88245 7355 ft 226 kts 218°
2026-04-20 23:42 21.21011 -157.89128 8139 ft 223 kts 225°
2026-04-20 23:42 21.18614 -157.91455 10141 ft 219 kts 225°
2026-04-20 23:43 21.17498 -157.92372 10981 ft 220 kts 212°
2026-04-20 23:43 21.16128 -157.93060 11845 ft 221 kts 212°
2026-04-20 23:43 21.15175 -157.94223 12656 ft 217 kts 252°
2026-04-20 23:43 21.15237 -157.95695 13336 ft 220 kts 292°
2026-04-20 23:44 21.16122 -157.97206 13788 ft 246 kts 302°
2026-04-20 23:44 21.17092 -157.98798 13928 ft 263 kts 300°
2026-04-20 23:44 21.18032 -158.00479 13970 ft 277 kts 298°
2026-04-20 23:44 21.19002 -158.02324 13978 ft 292 kts 297°
2026-04-20 23:45 21.19992 -158.04297 13982 ft 302 kts 296°
2026-04-20 23:45 21.20962 -158.06294 13983 ft 308 kts 296°
2026-04-20 23:45 21.21952 -158.08379 13976 ft 316 kts 296°
2026-04-20 23:45 21.22928 -158.10465 13959 ft 312 kts 295°
2026-04-20 23:46 21.23894 -158.12552 13962 ft 311 kts 295°
2026-04-20 23:46 21.24847 -158.14632 13964 ft 312 kts 295°
2026-04-20 23:46 21.25773 -158.16664 13963 ft 308 kts 295°
2026-04-20 23:46 21.26715 -158.18738 13966 ft 308 kts 295°
2026-04-20 23:47 21.27652 -158.20810 13965 ft 308 kts 295°
2026-04-20 23:47 21.28577 -158.22856 13962 ft 305 kts 294°
2026-04-20 23:47 21.29500 -158.24908 13969 ft 309 kts 294°
2026-04-20 23:47 21.30428 -158.26971 13960 ft 306 kts 294°
2026-04-20 23:48 21.31354 -158.29033 13944 ft 306 kts 295°
2026-04-20 23:48 21.32280 -158.31099 13956 ft 306 kts 295°
2026-04-20 23:48 21.33180 -158.33107 13972 ft 305 kts 295°
2026-04-20 23:48 21.34091 -158.35141 13958 ft 306 kts 294°
2026-04-20 23:49 21.35024 -158.37227 13952 ft 307 kts 294°
2026-04-20 23:49 21.35941 -158.39278 13940 ft 304 kts 295°
2026-04-20 23:49 21.36854 -158.41318 13949 ft 306 kts 294°
2026-04-20 23:49 21.37790 -158.43414 13941 ft 307 kts 294°
2026-04-20 23:50 21.38701 -158.45453 13944 ft 307 kts 294°
2026-04-20 23:50 21.39623 -158.47520 13936 ft 305 kts 294°
2026-04-20 23:50 21.40523 -158.49538 13932 ft 298 kts 294°
2026-04-20 23:50 21.41403 -158.51514 13940 ft 297 kts 294°
2026-04-20 23:51 21.42304 -158.53537 13937 ft 297 kts 294°
2026-04-20 23:51 21.43185 -158.55515 13937 ft 294 kts 294°
2026-04-20 23:51 21.44068 -158.57500 13938 ft 295 kts 294°
2026-04-20 23:51 21.44954 -158.59486 13937 ft 293 kts 295°
2026-04-20 23:52 21.45605 -158.60939 13938 ft 291 kts 295°
2026-04-20 23:52 21.46213 -158.62286 13940 ft 289 kts 295°
2026-04-20 23:52 21.47095 -158.64237 13943 ft 291 kts 295°
2026-04-20 23:53 21.47979 -158.66185 13942 ft 293 kts 295°
2026-04-20 23:53 21.48860 -158.68138 13936 ft 292 kts 295°
2026-04-20 23:53 21.49745 -158.70110 13939 ft 292 kts 294°
2026-04-20 23:53 21.50587 -158.71986 13931 ft 290 kts 295°
2026-04-20 23:54 21.51395 -158.73790 13925 ft 281 kts 294°
2026-04-20 23:54 21.52265 -158.75734 13929 ft 278 kts 294°
2026-04-20 23:54 21.53065 -158.77508 13927 ft 273 kts 294°
2026-04-20 23:54 21.53863 -158.79272 13928 ft 267 kts 294°
2026-04-20 23:55 21.54678 -158.81073 13850 ft 267 kts 294°
2026-04-20 23:55 21.55459 -158.82800 13489 ft 272 kts 295°
2026-04-20 23:55 21.56292 -158.84642 13065 ft 277 kts 295°
2026-04-20 23:55 21.57139 -158.86519 12637 ft 283 kts 294°
2026-04-20 23:56 21.57980 -158.88386 12183 ft 278 kts 294°
2026-04-20 23:56 21.58801 -158.90212 11688 ft 266 kts 294°
2026-04-20 23:56 21.59588 -158.91963 11211 ft 258 kts 294°
2026-04-20 23:56 21.60351 -158.93657 10764 ft 246 kts 294°
2026-04-20 23:57 21.61083 -158.95293 10345 ft 240 kts 294°
2026-04-20 23:57 21.61798 -158.96880 9925 ft 232 kts 294°
2026-04-20 23:57 21.62486 -158.98407 9509 ft 229 kts 294°
2026-04-20 23:57 21.63207 -159.00005 9116 ft 244 kts 295°
2026-04-20 23:58 21.63954 -159.01672 8721 ft 252 kts 294°
2026-04-20 23:58 21.64724 -159.03398 8322 ft 262 kts 295°
2026-04-20 23:58 21.65479 -159.05100 7941 ft 267 kts 295°
2026-04-20 23:58 21.66259 -159.06863 7542 ft 269 kts 295°
2026-04-20 23:59 21.67074 -159.08711 7126 ft 265 kts 295°
2026-04-20 23:59 21.67843 -159.10472 6708 ft 257 kts 295°
2026-04-20 23:59 21.68575 -159.12169 6295 ft 252 kts 295°
2026-04-20 23:59 21.69313 -159.13898 5879 ft 252 kts 295°
2026-04-21 00:00 21.70027 -159.15573 5468 ft 249 kts 295°
2026-04-21 00:00 21.70753 -159.17279 5085 ft 246 kts 295°
2026-04-21 00:00 21.71450 -159.18926 4723 ft 244 kts 295°
2026-04-21 00:00 21.72131 -159.20535 4360 ft 238 kts 295°
2026-04-21 00:01 21.72802 -159.22136 4000 ft 237 kts 295°
2026-04-21 00:01 21.73484 -159.23766 3630 ft 236 kts 295°
2026-04-21 00:01 21.74344 -159.25218 3254 ft 232 kts 314°
2026-04-21 00:01 21.75555 -159.26381 2893 ft 232 kts 320°
2026-04-21 00:02 21.76771 -159.27510 2531 ft 229 kts 319°
2026-04-21 00:02 21.77972 -159.28621 2187 ft 227 kts 320°
2026-04-21 00:02 21.79163 -159.29730 2034 ft 219 kts 320°
2026-04-21 00:02 21.80276 -159.30765 1978 ft 206 kts 320°
2026-04-21 00:03 21.81333 -159.31747 1961 ft 197 kts 320°
2026-04-21 00:03 21.82360 -159.32700 1958 ft 191 kts 320°
2026-04-21 00:03 21.83421 -159.33472 1943 ft 179 kts 345°
2026-04-21 00:03 21.84623 -159.33546 1957 ft 173 kts
2026-04-21 00:04 21.85803 -159.33528 1976 ft 170 kts 359°
2026-04-21 00:04 21.86995 -159.33563 1967 ft 171 kts 360°
2026-04-21 00:04 21.88183 -159.33577 1763 ft 168 kts
2026-04-21 00:04 21.89310 -159.33583 1540 ft 157 kts
2026-04-21 00:05 21.90339 -159.33591 1323 ft 143 kts
2026-04-21 00:05 21.91346 -159.33585 1154 ft 144 kts
2026-04-21 00:05 21.92310 -159.33580 968 ft 141 kts
2026-04-21 00:05 21.93291 -159.33583 797 ft 143 kts
2026-04-21 00:06 21.94300 -159.33580 618 ft 148 kts
2026-04-21 00:06 21.95283 -159.33585 460 ft 151 kts
2026-04-21 00:06 21.96327 -159.33591 224 ft 138 kts
2026-04-21 00:06 21.97150 -159.33588 178 ft 91 kts
2026-04-21 00:07 21.97579 -159.33589 179 ft 45 kts 359°
2026-04-21 00:07 21.97803 -159.33627 179 ft 28 kts 338°
2026-04-21 00:07 21.97924 -159.33708 179 ft 17 kts 302°
2026-04-21 00:07 21.97940 -159.33826 180 ft 16 kts 268°
2026-04-21 00:08 21.97940 -159.33946 180 ft 20 kts 270°
2026-04-21 00:08 21.97940 -159.34091 180 ft 20 kts 270°
2026-04-21 00:08 21.97940 -159.34235 181 ft 18 kts 270°
2026-04-21 00:08 21.97933 -159.34360 181 ft 13 kts 243°
2026-04-21 00:09 21.97876 -159.34424 181 ft 12 kts 224°
2026-04-21 00:09 21.97814 -159.34491 181 ft 12 kts 227°
2026-04-21 00:09 21.97756 -159.34555 182 ft 12 kts 226°
2026-04-21 00:09 21.97750 -159.34624 182 ft 11 kts 307°
2026-04-21 00:10 21.97812 -159.34672 182 ft 9 kts
2026-04-21 00:10 21.97868 -159.34641 182 ft 8 kts
2026-04-21 00:10 21.97905 -159.34668 182 ft 3 kts 314°
2026-04-21 00:10 21.97919 -159.34682 182 ft 0 kts 314°
2026-04-21 00:11 21.97918 -159.34682 182 ft 0 kts 314°